When you browse on this site, cookies collect data to enhance your experience and personalize the content and advertising you see.
Visit our Privacy Policy to learn more. By continuing to use the site, you agree to this use of cookies and data.
  • In United Kingdom
  • List of Countries
  • For 7 days
  • Water Temperature
  • Weather Map
  • Weather Widgets
  • user-avatar
    Login

    Hourly Weather Naftalan

    Today, 24 January, Friday

    Time Temperature Precipitation Wind Pressure Humidity
    00:00 +7°C° 0 mm 3 mps 761 mmHg 56%
    01:00 +5°C° 0 mm 3 mps 761 mmHg 64%
    02:00 +5°C° 0 mm 3 mps 762 mmHg 71%
    03:00 +5°C° 0 mm 4 mps 762 mmHg 80%
    04:00 +5°C° 0.1 mm 4 mps 763 mmHg 81%
    05:00 +5°C° 0.1 mm 4 mps 764 mmHg 81%
    06:00 +5°C° 0.1 mm 5 mps 765 mmHg 82%
    07:00 +5°C° 0.1 mm 4 mps 765 mmHg 79%
    08:00 +7°C° 0.1 mm 3 mps 766 mmHg 75%
    09:00 +7°C° 0.1 mm 3 mps 767 mmHg 71%
    10:00 +7°C° 0.1 mm 3 mps 767 mmHg 69%
    11:00 +7°C° 0.1 mm 3 mps 768 mmHg 66%
    12:00 +7°C° 0.1 mm 3 mps 768 mmHg 63%
    13:00 +6°C° 0.1 mm 5 mps 768 mmHg 67%
    14:00 +5°C° 0.1 mm 6 mps 768 mmHg 71%
    15:00 +4°C° 0.1 mm 7 mps 768 mmHg 75%
    16:00 +4°C° 0 mm 6 mps 769 mmHg 75%
    17:00 +3°C° 0 mm 6 mps 770 mmHg 76%
    18:00 +3°C° 0 mm 6 mps 770 mmHg 76%
    19:00 +3°C° 0 mm 6 mps 771 mmHg 73%
    20:00 +3°C° 0 mm 5 mps 772 mmHg 70%
    21:00 +3°C° 0 mm 5 mps 773 mmHg 68%
    22:00 +2°C° 0 mm 6 mps 774 mmHg 70%
    23:00 +2°C° 0 mm 6 mps 774 mmHg 71%

    Tomorrow, 25 January, Saturday

    Time Temperature Precipitation Wind Pressure Humidity
    00:00 +2°C° 0 mm 6 mps 774 mmHg 73%
    01:00 +1°C° 0 mm 5 mps 774 mmHg 72%
    02:00 +1°C° 0 mm 4 mps 775 mmHg 71%
    03:00 +3°C° 0 mm 2 mps 775 mmHg 69%
    04:00 +2°C° 0 mm 2 mps 775 mmHg 71%
    05:00 +3°C° 0 mm 1 mps 775 mmHg 72%
    06:00 +2°C° 0 mm 0 mps 775 mmHg 73%
    07:00 +3°C° 0 mm 1 mps 775 mmHg 71%
    08:00 +3°C° 0 mm 2 mps 775 mmHg 68%
    09:00 +4°C° 0 mm 2 mps 775 mmHg 65%
    10:00 +4°C° 0 mm 3 mps 775 mmHg 59%
    11:00 +5°C° 0 mm 3 mps 774 mmHg 52%
    12:00 +6°C° 0 mm 4 mps 773 mmHg 46%
    13:00 +6°C° 0 mm 4 mps 773 mmHg 48%
    14:00 +8°C° 0 mm 3 mps 772 mmHg 49%
    15:00 +8°C° 0 mm 3 mps 772 mmHg 51%
    16:00 +7°C° 0 mm 3 mps 772 mmHg 56%
    17:00 +5°C° 0 mm 3 mps 772 mmHg 61%
    18:00 +5°C° 0 mm 3 mps 771 mmHg 66%
    19:00 +4°C° 0 mm 3 mps 771 mmHg 67%
    20:00 +5°C° 0 mm 2 mps 771 mmHg 68%
    21:00 +5°C° 0 mm 2 mps 772 mmHg 68%
    22:00 +5°C° 0 mm 2 mps 771 mmHg 69%
    23:00 +4°C° 0 mm 2 mps 771 mmHg 70%

    Day after tomorrow, 26 January, Sunday

    Time Temperature Precipitation Wind Pressure Humidity
    00:00 +4°C° 0 mm 2 mps 770 mmHg 71%
    01:00 +4°C° 0 mm 2 mps 770 mmHg 71%
    02:00 +3°C° 0 mm 3 mps 770 mmHg 71%
    03:00 +2°C° 0 mm 3 mps 769 mmHg 71%
    04:00 +2°C° 0 mm 3 mps 769 mmHg 70%
    05:00 +2°C° 0 mm 3 mps 769 mmHg 70%
    06:00 +3°C° 0 mm 2 mps 768 mmHg 69%
    07:00 +3°C° 0 mm 3 mps 769 mmHg 64%
    08:00 +4°C° 0 mm 3 mps 769 mmHg 60%
    09:00 +4°C° 0 mm 3 mps 769 mmHg 55%
    10:00 +7°C° 0 mm 3 mps 768 mmHg 49%
    11:00 +8°C° 0 mm 3 mps 768 mmHg 43%
    12:00 +10°C° 0 mm 3 mps 767 mmHg 36%
    13:00 +10°C° 0 mm 3 mps 767 mmHg 35%
    14:00 +11°C° 0 mm 3 mps 767 mmHg 33%
    15:00 +12°C° 0 mm 3 mps 767 mmHg 31%
    16:00 +10°C° 0 mm 2 mps 768 mmHg 35%
    17:00 +9°C° 0 mm 2 mps 768 mmHg 40%
    18:00 +9°C° 0 mm 1 mps 769 mmHg 44%
    19:00 +7°C° 0 mm 2 mps 769 mmHg 52%
    20:00 +6°C° 0 mm 4 mps 770 mmHg 60%
    21:00 +6°C° 0 mm 5 mps 771 mmHg 67%
    22:00 +6°C° 0 mm 4 mps 771 mmHg 68%
    23:00 +7°C° 0 mm 3 mps 771 mmHg 68%

    27 January, Monday

    Time Temperature Precipitation Wind Pressure Humidity
    00:00 +5°C° 0 mm 3 mps 772 mmHg 68%
    01:00 +5°C° 0 mm 3 mps 772 mmHg 68%
    02:00 +5°C° 0 mm 3 mps 773 mmHg 67%
    03:00 +5°C° 0 mm 3 mps 773 mmHg 67%
    04:00 +5°C° 0 mm 3 mps 773 mmHg 68%
    05:00 +5°C° 0 mm 3 mps 774 mmHg 69%
    06:00 +5°C° 0 mm 4 mps 774 mmHg 70%
    07:00 +6°C° 0 mm 4 mps 775 mmHg 68%
    08:00 +7°C° 0 mm 4 mps 775 mmHg 66%
    09:00 +8°C° 0 mm 4 mps 775 mmHg 64%
    10:00 +10°C° 0 mm 4 mps 775 mmHg 62%
    11:00 +10°C° 0 mm 4 mps 775 mmHg 60%
    12:00 +10°C° 0 mm 5 mps 774 mmHg 58%
    13:00 +10°C° 0 mm 5 mps 774 mmHg 59%
    14:00 +10°C° 0 mm 5 mps 774 mmHg 60%
    15:00 +10°C° 0 mm 5 mps 773 mmHg 62%
    16:00 +9°C° 0 mm 5 mps 773 mmHg 65%
    17:00 +8°C° 0 mm 5 mps 773 mmHg 68%
    18:00 +8°C° 0 mm 5 mps 773 mmHg 71%
    19:00 +7°C° 0 mm 5 mps 773 mmHg 71%
    20:00 +7°C° 0 mm 5 mps 773 mmHg 72%
    21:00 +7°C° 0 mm 5 mps 773 mmHg 72%
    22:00 +7°C° 0 mm 4 mps 773 mmHg 73%
    23:00 +6°C° 0 mm 4 mps 772 mmHg 74%

    28 January, Tuesday

    Time Temperature Precipitation Wind Pressure Humidity
    00:00 +6°C° 0 mm 4 mps 772 mmHg 75%
    01:00 +6°C° 0 mm 4 mps 772 mmHg 75%
    02:00 +5°C° 0 mm 3 mps 771 mmHg 75%
    03:00 +5°C° 0 mm 3 mps 771 mmHg 74%
    04:00 +5°C° 0 mm 2 mps 771 mmHg 75%
    05:00 +5°C° 0 mm 2 mps 771 mmHg 76%
    06:00 +5°C° 0 mm 2 mps 771 mmHg 77%
    07:00 +6°C° 0 mm 2 mps 771 mmHg 74%
    08:00 +6°C° 0 mm 2 mps 771 mmHg 71%
    09:00 +7°C° 0 mm 2 mps 771 mmHg 68%
    10:00 +8°C° 0 mm 2 mps 770 mmHg 66%
    11:00 +9°C° 0 mm 2 mps 770 mmHg 64%
    12:00 +10°C° 0 mm 2 mps 769 mmHg 61%
    13:00 +10°C° 0 mm 3 mps 769 mmHg 61%
    14:00 +11°C° 0 mm 4 mps 768 mmHg 61%
    15:00 +11°C° 0 mm 4 mps 767 mmHg 61%
    16:00 +10°C° 0 mm 4 mps 767 mmHg 67%
    17:00 +8°C° 0 mm 4 mps 767 mmHg 73%
    18:00 +8°C° 0 mm 4 mps 767 mmHg 78%
    19:00 +8°C° 0 mm 4 mps 767 mmHg 80%
    20:00 +7°C° 0 mm 4 mps 767 mmHg 82%
    21:00 +7°C° 0 mm 4 mps 766 mmHg 84%
    22:00 +7°C° 0 mm 4 mps 766 mmHg 84%
    23:00 +8°C° 0 mm 3 mps 766 mmHg 84%

    29 January, Wednesday

    Time Temperature Precipitation Wind Pressure Humidity
    00:00 +8°C° 0 mm 3 mps 765 mmHg 84%
    01:00 +7°C° 0 mm 2 mps 765 mmHg 85%
    02:00 +7°C° 0 mm 2 mps 765 mmHg 85%
    03:00 +7°C° 0 mm 2 mps 764 mmHg 85%
    04:00 +6°C° 0 mm 2 mps 764 mmHg 83%
    05:00 +6°C° 0 mm 2 mps 764 mmHg 81%
    06:00 +6°C° 0 mm 2 mps 764 mmHg 79%
    07:00 +6°C° 0 mm 2 mps 764 mmHg 74%
    08:00 +7°C° 0 mm 2 mps 764 mmHg 69%
    09:00 +7°C° 0 mm 2 mps 764 mmHg 64%
    10:00 +8°C° 0 mm 2 mps 764 mmHg 59%
    11:00 +9°C° 0 mm 2 mps 764 mmHg 55%
    12:00 +10°C° 0 mm 2 mps 764 mmHg 50%
    13:00 +12°C° 0 mm 2 mps 763 mmHg 48%
    14:00 +12°C° 0 mm 1 mps 763 mmHg 45%
    15:00 +12°C° 0 mm 1 mps 763 mmHg 43%
    16:00 +11°C° 0 mm 1 mps 763 mmHg 47%
    17:00 +10°C° 0 mm 0 mps 763 mmHg 52%
    18:00 +9°C° 0 mm 0 mps 763 mmHg 57%
    19:00 +9°C° 0 mm 0 mps 764 mmHg 56%
    20:00 +9°C° 0 mm 0 mps 764 mmHg 56%
    21:00 +10°C° 0 mm 1 mps 764 mmHg 55%
    22:00 +10°C° 0 mm 1 mps 765 mmHg 54%
    23:00 +10°C° 0 mm 1 mps 765 mmHg 53%
    Show more